Regional Weather Roundup
Issued by NWS

Home | Current Version | Previous Version | Text Only | Print | Product List | Glossary On
Versions: 1 2 3 4 5 6 7 8 9 10 11 12 13 14 15 16 17 18 19 20 21 22 23 24 25 26 27
000
ASUS45 KBOU 171706
RWRCO

WEATHER ROUNDUP FOR COLORADO
NATIONAL WEATHER SERVICE DENVER/BOULDER CO
1100 AM MDT THU APR 17 2014

NOTE: "FAIR" INDICATES FEW OR NO CLOUDS BELOW 12000 FEET WITH NO
SIGNIFICANT WEATHER AND/OR OBSTRUCTIONS TO VISIBILITY.

COZ001>005-013-030-031-171800-
...NORTHWEST COLORADO...

CITY           SKY/WX    TMP DP  RH WIND       PRES   REMARKS
CRAIG          SUNNY     48  20  32 VRB3      30.13
HAYDEN         MOSUNNY   45  18  33 NE3       30.16
MEEKER         SUNNY     50  18  28 CALM      30.13
MOUNT WERNER   NOT AVBL
STEAMBOAT SPGS MOSUNNY   44  11  26 W3        30.14
WALDEN         SUNNY     41  14  33 S8        30.13
$$

COZ006>008-011-171800-
...WEST CENTRAL VALLEYS...

CITY           SKY/WX    TMP DP  RH WIND       PRES   REMARKS
GRAND JUNCTION SUNNY     54  20  26 CALM      30.12
MONTROSE       SUNNY     55  24  30 N3        30.14
EAGLE          MOSUNNY   46  16  29 CALM      30.16
RIFLE          SUNNY     50  22  33 CALM      30.13
DELTA          SUNNY     56  26  31 E3        30.13
NUCLA            N/A     52  27  37 W3        30.19
$$

COZ017>023-064>068-171800-
...SOUTHWEST COLORADO...

CITY           SKY/WX    TMP DP  RH WIND       PRES   REMARKS
DURANGO        SUNNY     52  23  32 VRB3      30.18
CORTEZ         SUNNY     55  21  26 CALM      30.15
PAGOSA SPRINGS SUNNY     48  21  35 CALM      30.20
TELLURIDE      SUNNY     45  14  29 W6        30.20R
WOLF CREEK PAS SUNNY     30  18  59 SW10G16   30.27  WCI  21
$$

COZ009-010-012-014-032>034-037-058>063-171800-
...CENTRAL COLORADO...

CITY           SKY/WX    TMP DP  RH WIND       PRES   REMARKS
ASPEN          MOSUNNY   47  15  27 CALM      30.14
BUENA VISTA    MOSUNNY   37  26  64 SE6       30.19F
COPPER MTN     MOSUNNY   32  12  43 W16G30    30.22  WCI  21
BERTHOUD PASS  FAIR      23  12  63 NW29G39   30.19  WCI   6
COTTONWOOD PAS MOSUNNY   34  28  80 SE5       30.21  WCI  30
GUNNISON       SUNNY     41  21  45 CALM      30.22
KREMMLING      SUNNY     46  19  34 SE3       30.15
LEADVILLE      PTSUNNY   36  13  38 CALM      30.17
MONARCH PASS   MOSUNNY   21  19  93 MISG      30.34
SALIDA         MOSUNNY   43  31  62 N5        30.26
SUNLIGHT       SUNNY     36  19  51 CALM      30.24
WILKERSON PASS MOSUNNY   28  21  74 S5        30.24  WCI  23
$$

COZ069>075-171800-
...SAN LUIS VALLEY/SANGRE DE CRISTO MOUNTAINS...

CITY           SKY/WX    TMP DP  RH WIND       PRES   REMARKS
ALAMOSA        MOSUNNY   39  31  72 CALM      30.22
LA VETA PASS   MOSUNNY   34  30  86 SW7       30.23  WCI  28
SAGUACHE       NOT AVBL
$$

COZ035-036-038>040-171800-
...NORTHERN COLORADO FRONT RANGE...

CITY           SKY/WX    TMP DP  RH WIND       PRES   REMARKS
DENVER INTL AP MOSUNNY   53  30  41 VRB3      30.09
DMNS CITY PARK   N/A     55  27  33 NE3       30.07F
AURORA         MOSUNNY   55  21  26 S10       30.09
FRONT RANGE AP MOSUNNY   55  28  35 SW6       30.10
ERIE MUNI ARPT SUNNY     47  33  58 N5        30.09
BOULDER MUN AP SUNNY     46  32  57 CALM      30.09
CENTENNIAL     PTSUNNY   54  21  27 S8        30.09
BROOMFIELD     NOT AVBL
FORT COLLINS   SUNNY     45  36  70 N6        30.12
LONGMONT       SUNNY     53  33  46 CALM      30.11
$$

COZ041-046-047-076>085-087-088-171800-
...PIKES PEAK/PALMER DIVIDE AND SOUTHERN FOOTHILLS...

CITY           SKY/WX    TMP DP  RH WIND       PRES   REMARKS
COLO. SPRINGS  CLOUDY    41  34  76 S8        30.18
A. F. ACADEMY  CLOUDY    38  35  90 SE7       30.17
ELLICOTT       NOT AVBL
FALCON         CLOUDY    36  34  91 S14       30.19
FORT CARSON    CLOUDY    43  36  74 S10       30.17
LIMON          PTSUNNY   44  33  65 S21G26    30.17
MONUMENT HILL  SUNNY     41  32  70 S16       30.13
TRINIDAD       PTSUNNY   45  37  73 SW6       30.21
$$

COZ042>045-048>051-090-091-171800-
...NORTHEAST COLORADO...

CITY           SKY/WX    TMP DP  RH WIND       PRES   REMARKS
GREELEY ARPT   SUNNY     46  32  57 CALM      30.11
AKRON          MOSUNNY   50  35  56 S18G25    30.13
BURLINGTON     CLOUDY    39  31  72 S16       30.23
WRAY           CLOUDY    36  33  89 SE14      30.23
STERLING       MOSUNNY   50  41  71 SE17G23   30.13
HOLYOKE        CLOUDY    37  34  87 SE14      30.21
FORT MORGAN    SUNNY     55  31  40 SW10      30.10
$$

COZ086-089-092>099-171800-
...SOUTHEAST COLORADO...

CITY           SKY/WX    TMP DP  RH WIND       PRES   REMARKS
PUEBLO         MOSUNNY   47  37  68 S9        30.20
LA JUNTA       CLOUDY    45  38  76 S9        30.23
LAMAR          CLOUDY    47  39  74 S9        30.23
SPRINGFIELD      N/A     41  37  86 SE8       30.25
$$



USA.gov is the U.S. government's official web portal to all federal, state and local government web resources and services.